FW3866 Weather Reports


time (UTC)temp
F
wind
direction
speed
knots
gust
knots
rain 1hr
in
rain 24hr
in
rain mn
in
humidity
%
barometer
mb
20260504070152 50 264 7.0 9.6 0.00 0.00 0.00 75 1004.1
20260504060150 54 240 10.4 13.0 0.00 0.00 0.00 65 1004.6
20260504050649 56 217 13.9 16.5 0.00 0.00 0.00 59 1004.8
20260504050148 55 216 11.3 14.8 0.00 0.00 0.00 59 1005.0
20260504045150 54 210 10.4 12.2 0.00 0.00 0.00 61 1005.2
20260504044649 53 203 10.4 12.2 0.00 0.00 0.00 62 1005.2
20260504044148 52 216 9.6 11.3 0.00 0.00 0.00 63 1005.4
20260504043649 53 212 8.7 12.2 0.00 0.00 0.00 62 1005.4
20260504043147 53 213 9.6 12.2 0.00 0.00 0.00 62 1005.4
20260504042147 53 209 9.6 13.9 0.00 0.00 0.00 60 1005.6
20260504041647 54 214 11.3 14.8 0.00 0.00 0.00 60 1005.5
20260504041148 53 209 12.2 14.8 0.00 0.00 0.00 60 1005.4
20260504040648 53 207 10.4 11.3 0.00 0.00 0.00 60 1005.6
20260504040147 53 209 7.8 11.3 0.00 0.00 0.00 59 1005.6
20260504035648 53 209 9.6 11.3 0.00 0.00 0.00 59 1005.7
20260504035146 53 202 8.7 10.4 0.00 0.00 0.00 60 1005.6
20260504034147 53 203 7.8 11.3 0.00 0.00 0.00 60 1005.8
20260504033646 54 202 7.8 11.3 0.00 0.00 0.00 59 1005.8
20260504033147 54 202 9.6 11.3 0.00 0.00 0.00 59 1005.9
20260504032645 53 209 8.7 11.3 0.00 0.00 0.00 59 1005.9
20260504032147 53 196 6.1 7.8 0.00 0.00 0.00 60 1005.9
20260504031647 53 0.0 8.7 0.00 0.00 0.00 62 1005.9
20260504031145 52 197 7.0 8.7 0.00 0.00 0.00 62 1006.1
20260504030646 52 197 5.2 7.8 0.00 0.00 0.00 63 1006.2
20260504030145 52 197 5.2 7.8 0.00 0.00 0.00 63 1006.2
20260504025646 52 196 4.3 8.7 0.00 0.00 0.00 64 1006.4
20260504025145 51 195 5.2 8.7 0.00 0.00 0.00 64 1006.4
20260504024646 51 192 5.2 7.8 0.00 0.00 0.00 65 1006.5
20260504024146 51 193 5.2 7.8 0.00 0.00 0.00 64 1006.6
20260504023646 51 195 4.3 6.1 0.00 0.00 0.00 64 1006.7
20260504023144 51 190 5.2 7.8 0.00 0.00 0.00 63 1006.8
20260504022644 51 199 6.1 8.7 0.00 0.00 0.00 62 1006.8
20260504021644 52 200 7.0 7.8 0.00 0.00 0.00 61 1006.8
20260504021146 52 199 6.1 8.7 0.00 0.00 0.00 61 1006.8
20260504020644 52 199 7.0 9.6 0.00 0.00 0.00 60 1006.9
20260504020144 53 204 8.7 9.6 0.00 0.00 0.00 59 1006.9
20260504015643 53 203 7.8 8.7 0.00 0.00 0.00 57 1007.0
20260504015145 55 209 7.8 8.7 0.00 0.00 0.00 54 1007.0
20260504014143 56 221 6.1 7.8 0.00 0.00 0.00 51 1007.3
20260504013644 58 224 5.2 6.1 0.00 0.00 0.00 48 1007.4
20260504012644 60 224 5.2 7.8 0.00 0.00 0.00 45 1007.5
20260504012142 61 240 6.1 7.8 0.00 0.00 0.00 45 1007.7
20260504011643 62 248 5.2 6.1 0.00 0.00 0.00 44 1007.6
20260504011143 63 248 5.2 8.7 0.00 0.00 0.00 43 1007.8
20260504010642 64 261 6.1 9.6 0.00 0.00 0.00 41 1007.9
20260504010144 65 262 7.0 9.6 0.00 0.00 0.00 39 1008.0
20260504005642 66 255 7.8 9.6 0.00 0.00 0.00 38 1007.9
20260504005142 67 257 7.8 12.2 0.00 0.00 0.00 38 1008.0
20260504004143 68 268 8.7 13.0 0.00 0.00 0.00 35 1008.3
20260504002643 68 255 9.6 13.9 0.00 0.00 0.00 35 1008.4
20260504002143 69 259 9.6 16.5 0.00 0.00 0.00 34 1008.5
20260504001641 69 245 11.3 16.5 0.00 0.00 0.00 34 1008.6
20260504001143 69 255 11.3 16.5 0.00 0.00 0.00 35 1008.7
20260504000641 69 281 7.8 16.5 0.00 0.00 0.00 35 1008.7
20260503235641 69 247 13.0 17.4 0.00 0.00 0.00 34 1008.8
20260503235143 69 258 13.0 17.4 0.00 0.00 0.00 33 1009.0
20260503234641 70 262 10.4 14.8 0.00 0.00 0.00 32 1009.1
20260503234141 70 272 12.2 20.9 0.00 0.00 0.00 31 1009.1
20260503233641 70 290 14.8 20.9 0.00 0.00 0.00 31 1009.3
20260503233140 70 303 9.6 16.5 0.00 0.00 0.00 33 1009.3
20260503232641 70 282 11.3 18.2 0.00 0.00 0.00 30 1009.4
20260503232140 70 286 12.2 18.2 0.00 0.00 0.00 31 1009.4
20260503231140 70 257 14.8 18.2 0.00 0.00 0.00 32 1009.5
20260503230641 70 262 11.3 19.1 0.00 0.00 0.00 31 1009.4
20260503230140 70 264 7.8 19.1 0.00 0.00 0.00 30 1009.6
20260503225141 71 240 13.0 16.5 0.00 0.00 0.00 31 1009.5
20260503224640 70 282 9.6 17.4 0.00 0.00 0.00 32 1009.7
20260503224139 71 281 12.2 17.4 0.00 0.00 0.00 31 1009.8
20260503223640 70 319 13.0 17.4 0.00 0.00 0.00 30 1009.8
20260503223140 70 286 12.2 16.5 0.00 0.00 0.00 30 1010.0
20260503222638 70 264 10.4 16.5 0.00 0.00 0.00 28 1009.9
20260503222139 70 300 13.0 16.5 0.00 0.00 0.00 29 1010.0
20260503221639 70 317 10.4 16.5 0.00 0.00 0.00 28 1010.3
20260503221139 71 269 9.6 15.6 0.00 0.00 0.00 29 1010.1
20260503220639 70 312 8.7 15.6 0.00 0.00 0.00 28 1010.4
20260503220140 71 275 9.6 15.6 0.00 0.00 0.00 28 1010.6
20260503215639 71 288 12.2 15.6 0.00 0.00 0.00 28 1010.6
20260503215137 70 264 11.3 15.6 0.00 0.00 0.00 27 1010.4
20260503214639 70 293 7.0 15.6 0.00 0.00 0.00 28 1010.8
20260503214137 71 288 10.4 17.4 0.00 0.00 0.00 29 1011.0
20260503213638 71 310 9.6 17.4 0.00 0.00 0.00 30 1011.0
20260503213138 70 303 8.7 13.9 0.00 0.00 0.00 30 1011.0
20260503212637 70 285 7.0 13.9 0.00 0.00 0.00 27 1011.0
20260503212139 69 310 5.2 15.6 0.00 0.00 0.00 29 1011.1
20260503211638 70 238 10.4 15.6 0.00 0.00 0.00 26 1011.3
20260503211138 70 266 10.4 14.8 0.00 0.00 0.00 30 1011.3
20260503210637 70 252 6.1 13.0 0.00 0.00 0.00 26 1011.4
20260503210137 70 295 2.6 16.5 0.00 0.00 0.00 25 1011.5
20260503205636 70 299 8.7 17.4 0.00 0.00 0.00 26 1011.7
20260503204636 70 317 11.3 17.4 0.00 0.00 0.00 26 1011.8
20260503204136 70 340 1.7 13.9 0.00 0.00 0.00 28 1011.9
20260503203637 70 313 9.6 13.9 0.00 0.00 0.00 28 1012.0
20260503203136 69 279 7.0 13.0 0.00 0.00 0.00 27 1012.0
20260503202637 69 306 6.1 14.8 0.00 0.00 0.00 26 1012.3
20260503201635 69 321 1.7 12.2 0.00 0.00 0.00 22 1012.3
20260503200635 69 262 7.8 15.6 0.00 0.00 0.00 23 1012.5
20260503200136 69 320 8.7 17.4 0.00 0.00 0.00 24 1012.7
20260503195136 69 341 7.8 12.2 0.00 0.00 0.00 24 1012.7
20260503194634 69 314 4.3 11.3 0.00 0.00 0.00 25 1012.7
20260503194133 69 288 7.0 15.6 0.00 0.00 0.00 26 1012.9
20260503193635 68 0 7.8 15.6 0.00 0.00 0.00 23 1012.8
20260503193135 68 0 6.1 13.9 0.00 0.00 0.00 25 1013.0
20260503192635 68 306 6.1 14.8 0.00 0.00 0.00 23 1012.9
20260503192135 68 293 8.7 14.8 0.00 0.00 0.00 24 1013.1
20260503191635 68 313 7.0 14.8 0.00 0.00 0.00 23 1013.2
20260503191134 68 321 7.8 16.5 0.00 0.00 0.00 23 1013.3
20260503190634 68 323 11.3 17.4 0.00 0.00 0.00 25 1013.3
20260503190135 68 353 9.6 17.4 0.00 0.00 0.00 24 1013.5
20260503185633 68 28 6.1 13.0 0.00 0.00 0.00 22 1013.4
20260503185134 67 321 4.3 13.9 0.00 0.00 0.00 23 1013.6
20260503184634 68 312 11.3 13.9 0.00 0.00 0.00 25 1013.6
20260503183134 67 329 7.8 14.8 0.00 0.00 0.00 25 1013.8
20260503182133 67 283 10.4 13.0 0.00 0.00 0.00 27 1013.8
20260503181633 67 336 5.2 16.5 0.00 0.00 0.00 22 1013.9
20260503181132 67 355 13.0 16.5 0.00 0.00 0.00 26 1014.0
20260503180633 67 289 8.7 14.8 0.00 0.00 0.00 27 1014.3
20260503180132 66 343 7.0 14.8 0.00 0.00 0.00 25 1014.3
20260503175634 66 317 10.4 14.8 0.00 0.00 0.00 28 1014.4
20260503175132 66 323 11.3 14.8 0.00 0.00 0.00 27 1014.5
20260503174632 66 355 7.0 13.0 0.00 0.00 0.00 29 1014.4
20260503174133 66 348 6.1 11.3 0.00 0.00 0.00 25 1014.3
20260503173631 66 327 7.8 15.6 0.00 0.00 0.00 25 1014.7
20260503173132 66 17 11.3 15.6 0.00 0.00 0.00 26 1014.7
20260503172631 66 1 8.7 18.2 0.00 0.00 0.00 24 1014.9
20260503172131 65 343 12.2 18.2 0.00 0.00 0.00 27 1014.8
20260503171132 66 309 13.0 17.4 0.00 0.00 0.00 33 1014.9
20260503170632 65 310 10.4 15.6 0.00 0.00 0.00 32 1014.8
20260503160129 63 341 6.1 13.9 0.00 0.00 0.00 46 1015.3
20260503150627 58 226 0.9 3.5 0.00 0.00 0.00 60 1015.5
20260503150129 57 226 2.6 3.5 0.00 0.00 0.00 62 1015.7
20260503140127 51 309 3.5 4.3 0.00 0.00 0.00 73 1016.1
20260503131125 46 240 6.1 9.6 0.00 0.00 0.00 83 1015.8
20260503130625 45 230 7.0 8.7 0.00 0.00 0.00 86 1015.7
20260503130124 44 247 5.2 7.8 0.00 0.00 0.00 89 1015.7
20260503120123 38 313 1.7 1.7 0.00 0.00 0.00 89 1015.0
20260503110623 39 317 3.5 4.3 0.00 0.00 0.00 85 1014.8
20260503110122 39 319 3.5 5.2 0.00 0.00 0.00 85 1014.9
20260503100123 40 302 2.6 3.5 0.00 0.00 0.00 83 1014.5
20260503090120 43 313 0.0 2.6 0.00 0.00 0.00 79 1014.4
20260503081617 41 353 5.2 7.8 0.00 0.00 0.00 84 1013.8
20260503081118 39 353 5.2 7.8 0.00 0.00 0.00 82 1013.7
20260503080119 39 338 3.5 4.3 0.00 0.00 0.00 81 1013.6
20260503070616 46 327 4.3 5.2 0.00 0.00 0.00 69 1013.7